Location: Bonny Doon Airfield
(37.0704°N, 122.1252°W)
Time: 22:29:28
(UTC-07:00)

BREEZE M DEB (TANK) - Visible Passes

Search period start: 28 August 2016 00:00
Search period end: 07 September 2016 00:00
Orbit: 330 x 13715 km, 49.6° (Epoch: 27 August)

Date Brightness Start Highest point End Pass type
(mag) Time Alt. Az. Time Alt. Az. Time Alt. Az.
28 Aug 7.4 00:29:48 10° WNW 00:40:14 13° W 00:46:25 10° WSW visible
28 Aug 6.2 21:05:31 10° NW 22:06:25 66° WSW 22:13:26 34° SSE visible
29 Aug 7.0 23:25:54 10° NW 23:51:00 24° W 23:57:28 17° SW visible
30 Aug 6.4 19:56:20 10° WNW 21:14:17 81° SW 21:24:10 23° SE visible
31 Aug 6.7 22:22:34 10° NW 23:01:19 36° WSW 23:08:14 24° SSW visible
01 Sep 6.8 18:44:29 10° WNW 20:21:00 87° NE 20:34:57 12° SE visible
02 Sep 6.5 21:17:41 10° NW 22:10:54 51° WSW 22:19:00 25° S visible
03 Sep 7.5 23:38:52 10° WNW 23:53:22 15° W 00:01:07 10° WSW visible
04 Sep 6.6 20:10:23 10° NW 21:19:37 66° WSW 21:29:49 19° SSE visible
05 Sep 7.1 22:33:52 10° NW 23:04:08 25° W 23:13:55 12° SW visible
06 Sep 6.8 19:00:26 10° WNW 20:27:14 81° SW 20:40:40 10° SE visible
